TimeCDT,TemperatureF,Dew PointF,Humidity,Sea Level PressureIn,VisibilityMPH,Wind Direction,Wind SpeedMPH,Gust SpeedMPH,PrecipitationIn,Events,Conditions,WindDirDegrees,DateUTC
12:15 AM,73.4,71.6,94,30.17,10.0,Calm,Calm,-,N/A,,Clear,0,2013-07-18 05:15:00
12:35 AM,73.4,71.6,94,30.17,10.0,Calm,Calm,-,N/A,,Clear,0,2013-07-18 05:35:00
12:55 AM,73.4,71.6,94,30.15,10.0,Calm,Calm,-,N/A,,Clear,0,2013-07-18 05:55:00
1:15 AM,73.4,71.6,94,30.15,10.0,Calm,Calm,-,N/A,,Clear,0,2013-07-18 06:15:00
1:35 AM,71.6,71.6,100,30.14,10.0,Calm,Calm,-,N/A,,Clear,0,2013-07-18 06:35:00
1:55 AM,73.4,71.6,94,30.14,10.0,Calm,Calm,-,N/A,,Clear,0,2013-07-18 06:55:00
2:15 AM,77.0,71.6,83,30.15,10.0,North,3.5,-,N/A,Thunderstorm,Scattered Clouds,10,2013-07-18 07:15:00
2:35 AM,77.0,68.0,74,30.17,10.0,NE,21.9,35.7,N/A,Thunderstorm,Thunderstorm,50,2013-07-18 07:35:00
2:55 AM,73.4,66.2,78,30.18,10.0,NNE,15.0,24.2,N/A,Rain-Thunderstorm,Light Thunderstorms and Rain,30,2013-07-18 07:55:00
3:15 AM,71.6,68.0,88,30.15,10.0,North,4.6,-,N/A,Rain,Rain,350,2013-07-18 08:15:00
3:35 AM,69.8,68.0,94,30.14,7.0,Calm,Calm,-,0.02,Rain,Rain,0,2013-07-18 08:35:00
3:55 AM,69.8,68.0,94,30.13,10.0,Calm,Calm,-,0.03,Rain,Light Rain,0,2013-07-18 08:55:00
4:15 AM,69.8,68.0,94,30.16,10.0,SE,5.8,-,N/A,Thunderstorm,Scattered Clouds,130,2013-07-18 09:15:00
4:35 AM,69.8,68.0,94,30.17,10.0,East,5.8,-,N/A,Thunderstorm,Thunderstorm,80,2013-07-18 09:35:00
4:55 AM,71.6,68.0,88,30.17,10.0,ESE,5.8,-,N/A,,Clear,110,2013-07-18 09:55:00
5:15 AM,71.6,68.0,88,30.17,10.0,Calm,Calm,-,0.01,Rain,Light Rain,0,2013-07-18 10:15:00
5:35 AM,69.8,68.0,94,30.16,10.0,Calm,Calm,-,0.01,Rain,Light Rain,0,2013-07-18 10:35:00
5:55 AM,69.8,68.0,94,30.15,10.0,Calm,Calm,-,0.01,Rain,Light Rain,0,2013-07-18 10:55:00
6:15 AM,68.0,68.0,100,30.14,10.0,Calm,Calm,-,N/A,Rain,Light Rain,0,2013-07-18 11:15:00
6:35 AM,69.8,68.0,94,30.14,10.0,Calm,Calm,-,N/A,,Clear,0,2013-07-18 11:35:00
6:55 AM,69.8,68.0,94,30.14,10.0,Calm,Calm,-,0.01,,Clear,0,2013-07-18 11:55:00
7:15 AM,71.6,69.8,94,30.13,10.0,Calm,Calm,-,N/A,,Clear,0,2013-07-18 12:15:00
7:35 AM,71.6,69.8,94,30.13,10.0,Calm,Calm,-,N/A,,Clear,0,2013-07-18 12:35:00
7:55 AM,71.6,69.8,94,30.14,10.0,Calm,Calm,-,N/A,,Clear,0,2013-07-18 12:55:00
8:15 AM,73.4,69.8,88,30.15,10.0,Calm,Calm,-,N/A,,Clear,0,2013-07-18 13:15:00
8:35 AM,73.4,69.8,88,30.16,10.0,Calm,Calm,-,N/A,,Clear,0,2013-07-18 13:35:00
8:55 AM,73.4,69.8,88,30.16,10.0,Calm,Calm,-,N/A,,Clear,0,2013-07-18 13:55:00
9:15 AM,73.4,69.8,88,30.16,10.0,Calm,Calm,-,N/A,,Clear,0,2013-07-18 14:15:00
9:35 AM,73.4,69.8,88,30.17,10.0,South,4.6,-,N/A,Rain,Rain,190,2013-07-18 14:35:00
9:55 AM,73.4,69.8,88,30.18,10.0,South,4.6,-,N/A,Rain,Light Rain,180,2013-07-18 14:55:00
10:15 AM,75.2,71.6,89,30.17,10.0,Calm,Calm,-,N/A,,Scattered Clouds,0,2013-07-18 15:15:00
10:35 AM,77.0,69.8,78,30.17,10.0,Calm,Calm,-,N/A,Thunderstorm,Scattered Clouds,0,2013-07-18 15:35:00
10:55 AM,77.0,69.8,78,30.17,7.0,Calm,Calm,-,N/A,Thunderstorm,Mostly Cloudy,0,2013-07-18 15:55:00
11:15 AM,78.8,69.8,74,30.17,10.0,WSW,3.5,-,N/A,Thunderstorm,Thunderstorm,250,2013-07-18 16:15:00
11:35 AM,77.0,69.8,78,30.17,10.0,West,3.5,-,N/A,,Mostly Cloudy,270,2013-07-18 16:35:00
11:55 AM,77.0,68.0,74,30.18,10.0,West,3.5,-,N/A,,Overcast,270,2013-07-18 16:55:00
12:15 PM,77.0,71.6,83,30.18,10.0,NNW,3.5,-,N/A,Thunderstorm,Overcast,330,2013-07-18 17:15:00
12:35 PM,77.0,71.6,83,30.16,7.0,NW,3.5,-,N/A,Rain,Rain,320,2013-07-18 17:35:00
12:55 PM,75.2,71.6,89,30.15,7.0,Calm,Calm,-,0.07,Rain,Light Rain,0,2013-07-18 17:55:00
1:15 PM,77.0,71.6,83,30.14,10.0,Calm,Calm,-,N/A,,Scattered Clouds,0,2013-07-18 18:15:00
1:35 PM,78.8,71.6,78,30.12,10.0,Calm,Calm,-,N/A,,Mostly Cloudy,0,2013-07-18 18:35:00
1:55 PM,80.6,69.8,70,30.11,10.0,Calm,Calm,-,N/A,,Scattered Clouds,0,2013-07-18 18:55:00
2:15 PM,82.4,69.8,66,30.10,10.0,Calm,Calm,-,N/A,,Clear,0,2013-07-18 19:15:00
2:35 PM,82.4,69.8,66,30.09,10.0,Calm,Calm,-,N/A,,Clear,0,2013-07-18 19:35:00
2:55 PM,84.2,69.8,62,30.08,10.0,SW,3.5,-,N/A,,Clear,220,2013-07-18 19:55:00
3:15 PM,86.0,71.6,62,30.06,10.0,South,4.6,-,N/A,,Clear,180,2013-07-18 20:15:00
3:35 PM,86.0,69.8,58,30.05,10.0,ENE,3.5,-,N/A,,Clear,70,2013-07-18 20:35:00
3:55 PM,86.0,69.8,58,30.04,10.0,East,3.5,-,N/A,,Scattered Clouds,80,2013-07-18 20:55:00
4:15 PM,86.0,71.6,62,30.05,10.0,Calm,Calm,-,N/A,,Scattered Clouds,0,2013-07-18 21:15:00
5:35 PM,86.0,71.6,62,30.05,10.0,Calm,Calm,-,N/A,,Clear,0,2013-07-18 22:35:00
5:55 PM,86.0,69.8,58,30.05,10.0,Calm,Calm,-,N/A,,Clear,0,2013-07-18 22:55:00
6:15 PM,86.0,69.8,58,30.05,10.0,Calm,Calm,-,N/A,,Scattered Clouds,0,2013-07-18 23:15:00
6:35 PM,86.0,69.8,58,30.05,10.0,Calm,Calm,-,N/A,,Clear,0,2013-07-18 23:35:00
6:55 PM,86.0,69.8,58,30.05,10.0,Calm,Calm,-,N/A,,Clear,0,2013-07-18 23:55:00
7:15 PM,82.4,71.6,70,30.05,10.0,NNW,3.5,-,N/A,,Clear,330,2013-07-19 00:15:00
7:35 PM,82.4,71.6,70,30.05,10.0,North,3.5,-,N/A,Thunderstorm,Clear,350,2013-07-19 00:35:00
7:55 PM,80.6,73.4,79,30.06,10.0,NNW,3.5,-,N/A,,Clear,340,2013-07-19 00:55:00
8:15 PM,78.8,71.6,78,30.07,10.0,NNW,3.5,-,N/A,,Clear,340,2013-07-19 01:15:00
8:35 PM,78.8,71.6,78,30.07,7.0,ESE,6.9,-,0.01,Rain,Rain,110,2013-07-19 01:35:00
8:55 PM,77.0,73.4,89,30.07,10.0,Calm,Calm,-,0.02,Rain,Rain,0,2013-07-19 01:55:00
9:15 PM,75.2,73.4,94,30.08,10.0,NW,4.6,-,N/A,,Light Drizzle,310,2013-07-19 02:15:00
9:35 PM,75.2,71.6,89,30.08,10.0,NNW,3.5,-,N/A,,Mostly Cloudy,330,2013-07-19 02:35:00
9:55 PM,75.2,71.6,89,30.09,10.0,Calm,Calm,-,N/A,,Mostly Cloudy,0,2013-07-19 02:55:00
10:15 PM,73.4,71.6,94,30.09,10.0,Calm,Calm,-,N/A,,Scattered Clouds,0,2013-07-19 03:15:00
10:35 PM,73.4,71.6,94,30.08,7.0,Calm,Calm,-,N/A,,Clear,0,2013-07-19 03:35:00
10:55 PM,73.4,71.6,94,30.08,7.0,Calm,Calm,-,N/A,,Clear,0,2013-07-19 03:55:00
11:15 PM,71.6,71.6,100,30.08,10.0,Calm,Calm,-,N/A,,Clear,0,2013-07-19 04:15:00
11:35 PM,71.6,69.8,94,30.07,4.0,Calm,Calm,-,N/A,,Clear,0,2013-07-19 04:35:00
11:55 PM,71.6,69.8,94,30.06,4.0,Calm,Calm,-,N/A,,Clear,0,2013-07-19 04:55:00